Regional Weather Roundup
Issued by NWS

Home | Current Version | Previous Version | Graphics & Text | Print | Product List | Glossary On
Versions: 1 2 3 4 5 6 7 8 9 10 11 12 13 14 15 16 17 18 19 20 21 22 23 24 25 26 27 28 29 30 31 32 33 34 35 36 37 38 39 40 41 42 43 44 45 46 47 48 49 50
080
ASUS43 KTOP 202308
RWRKS

WEATHER ROUNDUP FOR KANSAS
NATIONAL WEATHER SERVICE GOODLAND KS
500 PM CST MON NOV 20 2017

NOTE:  "FAIR" INDICATES FEW OR NO CLOUDS BELOW 12,000 FEET WITH NO
SIGNIFICANT WEATHER AND/OR OBSTRUCTIONS TO VISIBILITY.

KSZ001>006-013>018-027>032-041>047-210000-
NORTHWEST KANSAS

CITY           SKY/WX    TMP DP  RH WIND       PRES   REMARKS
GOODLAND       CLOUDY    63   8  11 NW8       29.74R
HAYS           CLOUDY    63  22  20 SW7       29.70R
HILL CITY      CLOUDY    68  13  12 W7        29.68R
RUSSELL        CLOUDY    62  26  25 S12       29.68R
$$

KSZ061>065-074>080-084>089-210000-
SOUTHWEST KANSAS

CITY           SKY/WX    TMP DP  RH WIND       PRES   REMARKS
DODGE CITY     CLEAR     63  18  17 S13       29.75R
ELKHART        CLOUDY    65  21  18 W9        29.78R
GARDEN CITY    CLEAR     62  15  16 SW7       29.74S
GREAT BEND     CLOUDY    62  24  23 S10       29.72S
LIBERAL        CLEAR     57  19  22 SE7       29.77S
PRATT          CLOUDY    62  19  18 SW15G22   29.75R
$$

KSZ066>073-081>083-090>101-210000-
SOUTHEAST KANSAS

CITY           SKY/WX    TMP DP  RH WIND       PRES   REMARKS
CHANUTE        CLOUDY    60  27  28 S17G30    29.83R
COFFEYVILLE    CLOUDY    59  30  33 S13       29.84F
HUTCHINSON     CLOUDY    60  25  26 S9        29.74S
MEDICINE LODGE   N/A     62  24  23 S17G25    29.76R
NEWTON         CLOUDY    59  26  28 S22       29.76R
PARSONS        CLOUDY    58  30  34 S10       29.85F
WICHITA INTL   CLOUDY    60  27  28 S20       29.76F
WICHITA JABRA  CLOUDY    59  26  28 S22G31    29.76S
WICHITA MCCONL CLOUDY    59  25  27 SW18      29.77F
WINFIELD       CLEAR     60  28  29 S17G26    29.83R
$$

KSZ007>012-019>026-033>040-048>060-102>105-210000-
NORTHEAST KANSAS

CITY           SKY/WX    TMP DP  RH WIND       PRES   REMARKS
CONCORDIA      CLOUDY    58  25  28 SW14      29.67F
EMPORIA        CLOUDY    57  28  33 S15G25    29.76F
LAWRENCE       PTCLDY    59  29  31 S13G23    29.75S
MANHATTAN      CLOUDY    61  26  26 SW14      29.72R
MARYSVILLE     CLOUDY    55  28  35 S9        29.68F
OLATHE IND     CLOUDY    57  28  33 S20       29.77S
OLATHE EXE     PTCLDY    56  28  34 S13       29.77F
SALINA         CLOUDY    58  27  30 S3        29.73R
TOPEKA BILLARD CLOUDY    61  27  27 SW13G28   29.74R
TOPEKA FORBES  PTCLDY    61  28  28 SW18G29   29.73R
$$




USA.gov is the U.S. government's official web portal to all federal, state and local government web resources and services.